Dades meteomassalio
Diari Summary for Juny 6, 2017 Units:  Metric    English   Both
« Previous Day
Next Day »
Diari Semanal Mensual Anual Personalitzat
  Maxima: Minima: Mijana:
Temperatura: 26.0 °C 12.4 °C 19.9 °C
Rosada: 13.7 °C 10.7 °C 12 °C
Humitat: 92 % 42 % 63 %
Velocitat del vent: 43.4 km/h 0.0 km/h 18.5 km/h
Racha vent: 43.4 km/h - -
Vent:- - WNW
Pressio: 1019.2 hPa 1011.7 hPa -
Pluja: 0.0 mm    
Historical Graphs
 
 
Tabular Data for Juny 6, 2017
Time Temperature Dew Point Pressure Wind Wind Speed Wind Gust Humidity Rainfall Rate (Hourly) solar Conditions
00:04 15.8 °C 12.8 °C 1013.1 hPa Calm     82 % 0.0 mm 0.0 W/m2 RA
00:09 15.7 °C 12.6 °C 1013.1 hPa Calm     82 % 0.0 mm 0.0 W/m2 CLR
00:14 15.6 °C 12.7 °C 1013.1 hPa Calm     83 % 0.0 mm 0.0 W/m2 CLR
00:19 15.5 °C 12.6 °C 1013.1 hPa Calm     83 % 0.0 mm 0.0 W/m2 CLR
00:24 15.6 °C 12.5 °C 1013.1 hPa Calm     82 % 0.0 mm 0.0 W/m2 CLR
00:29 15.8 °C 12.5 °C 1013.1 hPa Calm     81 % 0.0 mm 0.0 W/m2 CLR
00:34 15.8 °C 12.3 °C 1013.1 hPa Calm     80 % 0.0 mm 0.0 W/m2 CLR
00:39 15.7 °C 12.7 °C 1013.1 hPa Calm     82 % 0.0 mm 0.0 W/m2 CLR
00:44 15.6 °C 12.5 °C 1013.1 hPa Calm     82 % 0.0 mm 0.0 W/m2 CLR
00:49 15.4 °C 12.5 °C 1013.1 hPa Calm     83 % 0.0 mm 0.0 W/m2 CLR
00:54 15.2 °C 12.3 °C 1013.1 hPa Calm     83 % 0.0 mm 0.0 W/m2 CLR
00:59 15.0 °C 12.3 °C 1013.1 hPa Calm     84 % 0.0 mm 0.0 W/m2 CLR
01:04 14.8 °C 12.3 °C 1013.1 hPa Calm     85 % 0.0 mm 0.0 W/m2 CLR
01:09 14.7 °C 12.2 °C 1013.1 hPa Calm     85 % 0.0 mm 0.0 W/m2 CLR
01:14 14.5 °C 12.2 °C 1012.8 hPa Calm     86 % 0.0 mm 0.0 W/m2 CLR
01:19 14.4 °C 12.1 °C 1012.8 hPa Calm     86 % 0.0 mm 0.0 W/m2 CLR
01:24 14.3 °C 12.2 °C 1012.8 hPa Calm     87 % 0.0 mm 0.0 W/m2 CLR
01:29 14.3 °C 12.2 °C 1012.8 hPa Calm     87 % 0.0 mm 0.0 W/m2 CLR
01:34 14.3 °C 12.2 °C 1012.8 hPa Calm     87 % 0.0 mm 0.0 W/m2 CLR
01:39 14.2 °C 12.1 °C 1012.8 hPa Calm     87 % 0.0 mm 0.0 W/m2 CLR
01:44 14.1 °C 11.9 °C 1012.8 hPa Calm     87 % 0.0 mm 0.0 W/m2 CLR
01:49 14.0 °C 11.9 °C 1012.8 hPa Calm     87 % 0.0 mm 0.0 W/m2 CLR
01:54 13.9 °C 12.0 °C 1012.8 hPa Calm     88 % 0.0 mm 0.0 W/m2 CLR
01:59 13.9 °C 11.9 °C 1012.8 hPa Calm     88 % 0.0 mm 0.0 W/m2 CLR
02:04 13.8 °C 11.8 °C 1012.8 hPa Calm     88 % 0.0 mm 0.0 W/m2 CLR
02:09 13.7 °C 11.7 °C 1012.8 hPa Calm     88 % 0.0 mm 0.0 W/m2 CLR
02:14 13.6 °C 11.8 °C 1012.8 hPa Calm     89 % 0.0 mm 0.0 W/m2 CLR
02:19 13.6 °C 11.8 °C 1012.4 hPa Calm     89 % 0.0 mm 0.0 W/m2 CLR
02:24 13.4 °C 11.7 °C 1012.4 hPa Calm     89 % 0.0 mm 0.0 W/m2 CLR
02:29 13.4 °C 11.6 °C 1012.4 hPa Calm     89 % 0.0 mm 0.0 W/m2 CLR
02:34 13.3 °C 11.5 °C 1012.4 hPa Calm     89 % 0.0 mm 0.0 W/m2 CLR
02:39 13.2 °C 11.6 °C 1012.4 hPa Calm     90 % 0.0 mm 0.0 W/m2 CLR
02:44 13.2 °C 11.6 °C 1012.4 hPa Calm     90 % 0.0 mm 0.0 W/m2 CLR
02:49 13.2 °C 11.6 °C 1012.4 hPa Calm     90 % 0.0 mm 0.0 W/m2 CLR
02:54 13.1 °C 11.5 °C 1012.4 hPa Calm     90 % 0.0 mm 0.0 W/m2 CLR
02:59 13.1 °C 11.4 °C 1012.1 hPa Calm     90 % 0.0 mm 0.0 W/m2 CLR
03:04 13.0 °C 11.4 °C 1012.4 hPa Calm     90 % 0.0 mm 0.0 W/m2 CLR
03:09 12.9 °C 11.5 °C 1012.4 hPa Calm     91 % 0.0 mm 0.0 W/m2 CLR
03:14 12.9 °C 11.4 °C 1012.4 hPa Calm     91 % 0.0 mm 0.0 W/m2 CLR
03:19 12.8 °C 11.2 °C 1012.1 hPa Calm     90 % 0.0 mm 0.0 W/m2 CLR
03:24 12.8 °C 11.3 °C 1012.1 hPa Calm     91 % 0.0 mm 0.0 W/m2 CLR
03:25 12.8 °C 11.3 °C 1012.1 hPa Calm     91 % 0.0 mm 0.0 W/m2 CLR
03:30 12.8 °C 11.4 °C 1012.1 hPa Calm     91 % 0.0 mm 0.0 W/m2 CLR
03:35 12.8 °C 11.3 °C 1012.1 hPa Calm     91 % 0.0 mm 0.0 W/m2 CLR
03:40 12.7 °C 11.3 °C 1012.1 hPa Calm     91 % 0.0 mm 0.0 W/m2 CLR
03:45 12.6 °C 11.2 °C 1011.7 hPa Calm     91 % 0.0 mm 0.0 W/m2 CLR
03:50 12.7 °C 11.3 °C 1011.7 hPa Calm     91 % 0.0 mm 0.0 W/m2 CLR
03:55 12.8 °C 11.4 °C 1011.7 hPa Calm     91 % 0.0 mm 0.0 W/m2 CLR
04:00 12.8 °C 11.4 °C 1011.7 hPa Calm     91 % 0.0 mm 0.0 W/m2 CLR
04:05 12.8 °C 11.3 °C 1011.7 hPa Calm     91 % 0.0 mm 0.0 W/m2 CLR
04:10 12.7 °C 11.3 °C 1011.7 hPa Calm     91 % 0.0 mm 0.0 W/m2 CLR
04:15 12.7 °C 11.3 °C 1011.7 hPa Calm     91 % 0.0 mm 0.0 W/m2 CLR
04:20 12.6 °C 11.2 °C 1011.7 hPa Calm     91 % 0.0 mm 0.0 W/m2 CLR
04:25 12.6 °C 11.1 °C 1011.7 hPa Calm     91 % 0.0 mm 0.0 W/m2 CLR
04:30 12.5 °C 11.1 °C 1011.7 hPa Calm     91 % 0.0 mm 0.0 W/m2 CLR
04:35 12.5 °C 11.1 °C 1011.7 hPa Calm     91 % 0.0 mm 0.0 W/m2 CLR
04:40 12.6 °C 11.1 °C 1011.7 hPa Calm     91 % 0.0 mm 0.0 W/m2 CLR
04:45 12.5 °C 11.1 °C 1011.7 hPa Calm     91 % 0.0 mm 0.0 W/m2 CLR
04:50 12.5 °C 11.1 °C 1011.7 hPa Calm     91 % 0.0 mm 0.0 W/m2 CLR
04:51 12.5 °C 11.1 °C 1011.7 hPa Calm     91 % 0.0 mm 0.0 W/m2 CLR
04:56 12.5 °C 11.1 °C 1011.7 hPa Calm     91 % 0.0 mm 0.0 W/m2 CLR
05:01 12.5 °C 11.1 °C 1011.7 hPa Calm     91 % 0.0 mm 0.0 W/m2 CLR
05:06 12.5 °C 11.1 °C 1011.7 hPa Calm     91 % 0.0 mm 0.0 W/m2 CLR
05:11 12.4 °C 11.0 °C 1011.7 hPa Calm     91 % 0.0 mm 0.0 W/m2 CLR
05:16 12.4 °C 10.9 °C 1011.7 hPa Calm     91 % 0.0 mm 0.0 W/m2 CLR
05:21 12.4 °C 10.9 °C 1012.1 hPa Calm     91 % 0.0 mm 0.0 W/m2 CLR
05:26 12.5 °C 11.2 °C 1012.1 hPa Calm     92 % 0.0 mm 0.0 W/m2 CLR
05:31 12.7 °C 11.2 °C 1012.1 hPa Calm     91 % 0.0 mm 0.0 W/m2 CLR
05:36 12.6 °C 11.2 °C 1012.1 hPa Calm     91 % 0.0 mm 0.0 W/m2 CLR
05:41 12.6 °C 11.1 °C 1012.1 hPa Calm     91 % 0.0 mm 0.0 W/m2 CLR
05:46 12.5 °C 11.1 °C 1012.1 hPa Calm     91 % 0.0 mm 0.0 W/m2 CLR
05:51 12.5 °C 11.1 °C 1012.1 hPa Calm     91 % 0.0 mm 0.0 W/m2 CLR
05:56 12.5 °C 11.1 °C 1012.1 hPa Calm     91 % 0.0 mm 0.0 W/m2 CLR
06:01 12.4 °C 11.0 °C 1012.1 hPa Calm     91 % 0.0 mm 0.0 W/m2 CLR
06:06 12.4 °C 10.9 °C 1012.1 hPa Calm     91 % 0.0 mm 0.0 W/m2 CLR
06:11 12.5 °C 11.1 °C 1012.1 hPa Calm     91 % 0.0 mm 0.0 W/m2 CLR
06:16 12.6 °C 11.1 °C 1012.1 hPa Calm     91 % 0.0 mm 0.0 W/m2 CLR
06:21 12.8 °C 11.4 °C 1012.1 hPa West 18.5 km/h 18.5 km/h 91 % 0.0 mm 5.0 W/m2 OVC
06:26 15.7 °C 11.7 °C 1012.1 hPa WSW 18.5 km/h 18.5 km/h 77 % 0.0 mm 7.0 W/m2 OVC
06:31 17.2 °C 11.3 °C 1012.1 hPa West 18.5 km/h 18.5 km/h 68 % 0.0 mm 9.0 W/m2 BKN
06:36 17.7 °C 10.8 °C 1012.4 hPa WSW 16.1 km/h 16.1 km/h 64 % 0.0 mm 11.0 W/m2 BKN
06:41 17.9 °C 10.8 °C 1012.4 hPa WSW 14.8 km/h 14.8 km/h 63 % 0.0 mm 14.0 W/m2 BKN
06:46 17.9 °C 10.8 °C 1012.4 hPa West 11.1 km/h 11.1 km/h 63 % 0.0 mm 16.0 W/m2 BKN
06:52 17.9 °C 10.7 °C 1012.8 hPa WSW 9.3 km/h 9.3 km/h 63 % 0.0 mm 19.0 W/m2 BKN
06:57 17.8 °C 10.9 °C 1012.4 hPa WSW 9.3 km/h 9.3 km/h 64 % 0.0 mm 19.0 W/m2 BKN
06:58 17.7 °C 10.8 °C 1012.8 hPa WSW 9.3 km/h 9.3 km/h 64 % 0.0 mm 21.0 W/m2 BKN
07:03 17.4 °C 10.8 °C 1012.8 hPa WSW 9.3 km/h 9.3 km/h 65 % 0.0 mm 26.0 W/m2 BKN
07:08 17.3 °C 10.9 °C 1012.8 hPa SW 5.6 km/h 5.6 km/h 66 % 0.0 mm 40.0 W/m2 BKN
07:13 17.5 °C 10.8 °C 1012.8 hPa West 8.0 km/h 8.0 km/h 65 % 0.0 mm 53.0 W/m2 SCT
07:18 17.6 °C 11.3 °C 1013.1 hPa WNW 9.7 km/h 9.7 km/h 67 % 0.0 mm 65.0 W/m2 SCT
07:23 17.9 °C 11.1 °C 1013.1 hPa West 16.1 km/h 16.1 km/h 64 % 0.0 mm 79.0 W/m2 FEW
07:24 18.0 °C 11.1 °C 1013.1 hPa West 16.7 km/h 16.7 km/h 64 % 0.0 mm 83.0 W/m2 FEW
07:29 18.6 °C 11.2 °C 1013.1 hPa West 11.1 km/h 11.1 km/h 62 % 0.0 mm 97.0 W/m2 FEW
07:34 18.9 °C 11.2 °C 1013.1 hPa West 11.3 km/h 11.3 km/h 61 % 0.0 mm 111.0 W/m2 CLR
07:39 19.1 °C 11.2 °C 1013.1 hPa WSW 18.5 km/h 18.5 km/h 60 % 0.0 mm 121.0 W/m2 CLR
07:44 19.3 °C 11.1 °C 1013.1 hPa West 24.1 km/h 24.1 km/h 59 % 0.0 mm 134.0 W/m2 CLR
07:49 19.5 °C 11.0 °C 1013.1 hPa WSW 25.9 km/h 25.9 km/h 58 % 0.0 mm 149.0 W/m2 CLR
07:54 19.6 °C 11.1 °C 1013.1 hPa West 22.5 km/h 22.5 km/h 58 % 0.0 mm 167.0 W/m2 CLR
07:59 19.7 °C 11.2 °C 1013.1 hPa West 13.0 km/h 13.0 km/h 58 % 0.0 mm 183.0 W/m2 CLR
08:04 19.8 °C 11.3 °C 1013.1 hPa West 22.2 km/h 22.2 km/h 58 % 0.0 mm 197.0 W/m2 CLR
08:09 19.9 °C 11.4 °C 1013.4 hPa West 13.0 km/h 13.0 km/h 58 % 0.0 mm 223.0 W/m2 CLR
08:14 20.0 °C 11.5 °C 1013.4 hPa West 20.9 km/h 20.9 km/h 58 % 0.0 mm 250.0 W/m2 CLR
08:19 20.1 °C 11.8 °C 1013.4 hPa WNW 25.9 km/h 25.9 km/h 59 % 0.0 mm 264.0 W/m2 CLR
08:24 20.1 °C 11.6 °C 1013.4 hPa NW 29.6 km/h 29.6 km/h 58 % 0.0 mm 269.0 W/m2 CLR
08:29 20.1 °C 11.8 °C 1013.4 hPa WNW 16.7 km/h 16.7 km/h 59 % 0.0 mm 279.0 W/m2 CLR
08:34 20.2 °C 11.9 °C 1013.8 hPa WNW 14.8 km/h 14.8 km/h 59 % 0.0 mm 301.0 W/m2 CLR
08:39 20.3 °C 12.3 °C 1013.8 hPa WNW 20.9 km/h 20.9 km/h 60 % 0.0 mm 316.0 W/m2 CLR
08:44 20.3 °C 12.1 °C 1013.8 hPa NW 27.8 km/h 27.8 km/h 59 % 0.0 mm 325.0 W/m2 CLR
08:49 20.4 °C 12.1 °C 1013.8 hPa WNW 25.9 km/h 25.9 km/h 59 % 0.0 mm 343.0 W/m2 CLR
08:54 20.4 °C 11.8 °C 1013.8 hPa NNW 29.6 km/h 29.6 km/h 58 % 0.0 mm 357.0 W/m2 CLR
08:59 20.6 °C 12.3 °C 1013.8 hPa NW 22.5 km/h 22.5 km/h 59 % 0.0 mm 376.0 W/m2 CLR
09:04 20.7 °C 12.4 °C 1013.8 hPa NNW 22.2 km/h 22.2 km/h 59 % 0.0 mm 394.0 W/m2 CLR
09:09 20.8 °C 12.2 °C 1013.8 hPa WNW 31.5 km/h 31.5 km/h 58 % 0.0 mm 278.0 W/m2 CLR
09:10 20.8 °C 12.2 °C 1013.8 hPa WNW 27.8 km/h 27.8 km/h 58 % 0.0 mm 401.0 W/m2 CLR
09:15 20.8 °C 12.3 °C 1014.1 hPa WNW 22.5 km/h 22.5 km/h 58 % 0.0 mm 396.0 W/m2 CLR
09:20 20.9 °C 12.1 °C 1014.1 hPa NW 33.8 km/h 33.8 km/h 57 % 0.0 mm 436.0 W/m2 CLR
09:25 20.9 °C 12.1 °C 1014.1 hPa NW 29.6 km/h 29.6 km/h 57 % 0.0 mm 436.0 W/m2 CLR
09:30 21.1 °C 12.5 °C 1013.8 hPa NW 24.1 km/h 24.1 km/h 58 % 0.0 mm 464.0 W/m2 CLR
09:35 21.2 °C 12.3 °C 1013.8 hPa WNW 31.5 km/h 31.5 km/h 57 % 0.0 mm 489.0 W/m2 CLR
09:40 21.1 °C 12.8 °C 1013.8 hPa WNW 27.8 km/h 27.8 km/h 59 % 0.0 mm 429.0 W/m2 CLR
09:45 21.1 °C 12.4 °C 1013.8 hPa NNW 35.2 km/h 35.2 km/h 58 % 0.0 mm 522.0 W/m2 CLR
09:50 21.1 °C 12.5 °C 1013.8 hPa NW 33.3 km/h 33.3 km/h 58 % 0.0 mm 517.0 W/m2 CLR
09:55 21.1 °C 12.3 °C 1013.8 hPa NW 31.5 km/h 31.5 km/h 57 % 0.0 mm 548.0 W/m2 CLR
10:00 21.3 °C 12.7 °C 1014.1 hPa NNW 29.6 km/h 29.6 km/h 58 % 0.0 mm 547.0 W/m2 CLR
10:05 21.4 °C 12.6 °C 1013.8 hPa NW 25.9 km/h 25.9 km/h 57 % 0.0 mm 559.0 W/m2 CLR
10:10 21.5 °C 12.1 °C 1013.8 hPa NW 35.2 km/h 35.2 km/h 55 % 0.0 mm 585.0 W/m2 CLR
10:15 21.6 °C 12.4 °C 1014.1 hPa NNW 31.5 km/h 31.5 km/h 56 % 0.0 mm 582.0 W/m2 CLR
10:20 21.7 °C 12.5 °C 1013.8 hPa NW 31.5 km/h 31.5 km/h 56 % 0.0 mm 603.0 W/m2 CLR
10:25 21.8 °C 12.6 °C 1013.8 hPa NW 40.7 km/h 40.7 km/h 56 % 0.0 mm 642.0 W/m2 CLR
10:30 21.9 °C 13.3 °C 1013.8 hPa WNW 29.6 km/h 29.6 km/h 58 % 0.0 mm 649.0 W/m2 CLR
10:35 21.9 °C 12.5 °C 1013.8 hPa NW 33.3 km/h 33.3 km/h 55 % 0.0 mm 657.0 W/m2 CLR
10:40 21.9 °C 12.4 °C 1013.8 hPa NNW 33.3 km/h 33.3 km/h 55 % 0.0 mm 677.0 W/m2 CLR
10:46 22.0 °C 13.1 °C 1013.8 hPa NNW 29.6 km/h 29.6 km/h 57 % 0.0 mm 659.0 W/m2 CLR
10:51 22.2 °C 13.5 °C 1013.8 hPa NW 25.9 km/h 25.9 km/h 58 % 0.0 mm 691.0 W/m2 CLR
10:56 22.2 °C 13.0 °C 1013.8 hPa NW 33.3 km/h 33.3 km/h 56 % 0.0 mm 701.0 W/m2 CLR
11:01 22.1 °C 13.2 °C 1013.8 hPa NNW 35.2 km/h 35.2 km/h 57 % 0.0 mm 717.0 W/m2 CLR
11:06 22.3 °C 13.3 °C 1013.8 hPa NNW 31.5 km/h 31.5 km/h 57 % 0.0 mm 708.0 W/m2 CLR
11:11 22.3 °C 13.6 °C 1013.8 hPa NW 31.5 km/h 31.5 km/h 58 % 0.0 mm 700.0 W/m2 CLR
11:16 22.2 °C 13.0 °C 1014.1 hPa NW 33.3 km/h 33.3 km/h 56 % 0.0 mm 754.0 W/m2 CLR
11:21 22.4 °C 13.2 °C 1014.1 hPa NW 22.2 km/h 22.2 km/h 56 % 0.0 mm 758.0 W/m2 CLR
11:26 22.4 °C 12.9 °C 1014.1 hPa NNW 40.7 km/h 40.7 km/h 55 % 0.0 mm 765.0 W/m2 CLR
11:31 22.4 °C 12.6 °C 1014.1 hPa NW 35.2 km/h 35.2 km/h 54 % 0.0 mm 795.0 W/m2 CLR
11:36 22.4 °C 13.2 °C 1014.1 hPa NNW 22.2 km/h 22.2 km/h 56 % 0.0 mm 800.0 W/m2 CLR
11:41 22.6 °C 12.8 °C 1014.1 hPa WNW 31.5 km/h 31.5 km/h 54 % 0.0 mm 810.0 W/m2 CLR
11:46 22.6 °C 12.6 °C 1014.1 hPa NW 29.6 km/h 29.6 km/h 53 % 0.0 mm 814.0 W/m2 CLR
11:51 22.6 °C 12.8 °C 1014.1 hPa NW 37.0 km/h 37.0 km/h 54 % 0.0 mm 821.0 W/m2 CLR
11:56 22.6 °C 12.3 °C 1014.4 hPa NW 42.6 km/h 42.6 km/h 52 % 0.0 mm 819.0 W/m2 CLR
12:01 22.7 °C 12.9 °C 1014.1 hPa NW 42.6 km/h 42.6 km/h 54 % 0.0 mm 851.0 W/m2 CLR
12:06 22.6 °C 12.8 °C 1014.4 hPa WNW 38.9 km/h 38.9 km/h 54 % 0.0 mm 856.0 W/m2 CLR
12:11 22.6 °C 12.8 °C 1014.4 hPa NW 33.3 km/h 33.3 km/h 54 % 0.0 mm 844.0 W/m2 CLR
12:16 22.8 °C 12.4 °C 1014.4 hPa NNW 32.2 km/h 32.2 km/h 52 % 0.0 mm 856.0 W/m2 CLR
12:21 22.8 °C 12.7 °C 1014.8 hPa NNW 31.5 km/h 31.5 km/h 53 % 0.0 mm 867.0 W/m2 CLR
12:26 22.8 °C 13.1 °C 1014.8 hPa NW 29.6 km/h 29.6 km/h 54 % 0.0 mm 844.0 W/m2 CLR
12:31 23.1 °C 12.9 °C 1014.4 hPa NW 31.5 km/h 31.5 km/h 53 % 0.0 mm 877.0 W/m2 CLR
12:36 22.9 °C 13.1 °C 1014.4 hPa NW 38.6 km/h 38.6 km/h 54 % 0.0 mm 898.0 W/m2 CLR
12:41 22.9 °C 13.7 °C 1014.4 hPa NNW 35.2 km/h 35.2 km/h 56 % 0.0 mm 877.0 W/m2 CLR
12:46 23.1 °C 13.0 °C 1014.8 hPa NW 37.0 km/h 37.0 km/h 53 % 0.0 mm 918.0 W/m2 CLR
12:51 23.2 °C 13.4 °C 1014.4 hPa North 33.3 km/h 33.3 km/h 54 % 0.0 mm 918.0 W/m2 CLR
12:56 23.2 °C 13.3 °C 1014.8 hPa NNW 35.4 km/h 35.4 km/h 54 % 0.0 mm 942.0 W/m2 CLR
13:01 23.2 °C 13.1 °C 1014.8 hPa NNW 31.5 km/h 31.5 km/h 53 % 0.0 mm 930.0 W/m2 CLR
13:06 23.3 °C 13.2 °C 1014.8 hPa WNW 31.5 km/h 31.5 km/h 53 % 0.0 mm 937.0 W/m2 CLR
13:11 23.6 °C 13.7 °C 1014.4 hPa NNW 25.9 km/h 25.9 km/h 54 % 0.0 mm 933.0 W/m2 CLR
13:16 23.6 °C 12.9 °C 1014.4 hPa NNW 31.5 km/h 31.5 km/h 51 % 0.0 mm 949.0 W/m2 CLR
13:21 23.8 °C 13.4 °C 1014.4 hPa WNW 31.5 km/h 31.5 km/h 52 % 0.0 mm 956.0 W/m2 CLR
13:22 23.8 °C 13.1 °C 1014.4 hPa WNW 31.5 km/h 31.5 km/h 51 % 0.0 mm 923.0 W/m2 CLR
13:27 23.9 °C 12.8 °C 1014.4 hPa NNW 24.1 km/h 24.1 km/h 50 % 0.0 mm 939.0 W/m2 CLR
13:32 23.8 °C 12.7 °C 1014.8 hPa NW 40.7 km/h 40.7 km/h 50 % 0.0 mm 914.0 W/m2 CLR
13:37 23.6 °C 12.3 °C 1014.4 hPa NNW 40.7 km/h 40.7 km/h 49 % 0.0 mm 918.0 W/m2 CLR
13:42 23.6 °C 12.6 °C 1014.4 hPa NNW 33.3 km/h 33.3 km/h 50 % 0.0 mm 958.0 W/m2 CLR
13:47 24.1 °C 12.7 °C 1014.4 hPa WNW 31.5 km/h 31.7 km/h 49 % 0.0 mm 939.0 W/m2 CLR
13:52 24.3 °C 12.9 °C 1014.4 hPa NNW 37.0 km/h 37.0 km/h 49 % 0.0 mm 953.0 W/m2 CLR
13:57 24.3 °C 12.6 °C 1014.4 hPa NNW 35.2 km/h 35.2 km/h 48 % 0.0 mm 942.0 W/m2 CLR
14:02 24.3 °C 12.9 °C 1014.4 hPa NNW 35.2 km/h 35.2 km/h 49 % 0.0 mm 914.0 W/m2 CLR
14:07 24.4 °C 12.4 °C 1014.8 hPa NNW 38.9 km/h 38.9 km/h 47 % 0.0 mm 932.0 W/m2 CLR
14:12 24.4 °C 13.0 °C 1014.4 hPa NNW 22.5 km/h 22.5 km/h 49 % 0.0 mm 976.0 W/m2 CLR
14:17 24.4 °C 12.1 °C 1014.4 hPa NNW 31.5 km/h 31.5 km/h 46 % 0.0 mm 805.0 W/m2 CLR
14:22 24.4 °C 12.1 °C 1014.4 hPa NNW 29.6 km/h 29.6 km/h 46 % 0.0 mm 965.0 W/m2 CLR
14:27 24.7 °C 13.2 °C 1014.8 hPa North 14.8 km/h 14.8 km/h 49 % 0.0 mm 951.0 W/m2 CLR
14:32 25.0 °C 12.6 °C 1014.8 hPa NNW 27.8 km/h 27.8 km/h 46 % 0.0 mm 954.0 W/m2 CLR
14:37 25.1 °C 13.6 °C 1014.8 hPa NNW 18.5 km/h 18.5 km/h 49 % 0.0 mm 960.0 W/m2 CLR
14:42 25.2 °C 12.4 °C 1014.4 hPa NNW 27.8 km/h 27.8 km/h 45 % 0.0 mm 947.0 W/m2 CLR
14:47 25.2 °C 12.4 °C 1014.4 hPa NW 27.8 km/h 27.8 km/h 45 % 0.0 mm 965.0 W/m2 CLR
14:52 25.1 °C 12.3 °C 1014.4 hPa NW 20.4 km/h 20.4 km/h 45 % 0.0 mm 830.0 W/m2 CLR
14:57 25.1 °C 12.3 °C 1014.8 hPa NNW 31.5 km/h 31.5 km/h 45 % 0.0 mm 380.0 W/m2 CLR
15:02 24.8 °C 12.1 °C 1014.4 hPa NW 25.9 km/h 25.9 km/h 45 % 0.0 mm 251.0 W/m2 CLR
15:08 24.6 °C 12.2 °C 1014.4 hPa NW 31.5 km/h 31.5 km/h 46 % 0.0 mm 285.0 W/m2 CLR
15:13 24.7 °C 12.9 °C 1014.4 hPa North 20.4 km/h 20.4 km/h 48 % 0.0 mm 956.0 W/m2 CLR
15:18 25.2 °C 12.7 °C 1014.4 hPa North 27.8 km/h 27.8 km/h 46 % 0.0 mm 895.0 W/m2 CLR
15:22 25.2 °C 13.1 °C 1014.4 hPa NNW 20.4 km/h 20.4 km/h 47 % 0.0 mm 907.0 W/m2 CLR
15:28 25.1 °C 12.3 °C 1014.4 hPa NNE 33.3 km/h 33.3 km/h 45 % 0.0 mm 976.0 W/m2 CLR
15:33 25.0 °C 11.6 °C 1014.4 hPa NNW 27.8 km/h 27.8 km/h 43 % 0.0 mm 933.0 W/m2 CLR
15:38 25.3 °C 13.2 °C 1014.4 hPa NW 18.5 km/h 18.5 km/h 47 % 0.0 mm 919.0 W/m2 CLR
15:43 25.6 °C 11.7 °C 1014.4 hPa North 35.2 km/h 35.2 km/h 42 % 0.0 mm 838.0 W/m2 CLR
15:48 25.4 °C 12.3 °C 1014.4 hPa NNW 25.9 km/h 25.9 km/h 44 % 0.0 mm 856.0 W/m2 CLR
15:53 25.6 °C 12.1 °C 1014.4 hPa NNW 25.9 km/h 25.9 km/h 43 % 0.0 mm 833.0 W/m2 CLR
15:58 25.7 °C 11.8 °C 1014.4 hPa WNW 31.5 km/h 31.5 km/h 42 % 0.0 mm 812.0 W/m2 CLR
16:03 25.7 °C 12.2 °C 1014.4 hPa NW 25.9 km/h 25.9 km/h 43 % 0.0 mm 842.0 W/m2 CLR
16:08 25.7 °C 12.2 °C 1014.4 hPa WNW 31.5 km/h 31.5 km/h 43 % 0.0 mm 775.0 W/m2 CLR
16:13 25.4 °C 12.3 °C 1014.4 hPa NNW 18.5 km/h 18.5 km/h 44 % 0.0 mm 851.0 W/m2 CLR
16:18 25.4 °C 11.9 °C 1014.4 hPa NNW 27.8 km/h 27.8 km/h 43 % 0.0 mm 833.0 W/m2 CLR
16:23 25.4 °C 12.3 °C 1014.4 hPa North 37.0 km/h 37.0 km/h 44 % 0.0 mm 780.0 W/m2 CLR
16:28 25.6 °C 12.7 °C 1014.4 hPa North 27.8 km/h 27.8 km/h 45 % 0.0 mm 775.0 W/m2 CLR
16:33 25.7 °C 12.5 °C 1014.4 hPa NNW 24.1 km/h 24.1 km/h 44 % 0.0 mm 770.0 W/m2 CLR
16:38 25.6 °C 12.4 °C 1014.4 hPa NW 24.1 km/h 24.1 km/h 44 % 0.0 mm 875.0 W/m2 CLR
16:43 25.5 °C 12.7 °C 1014.8 hPa NW 27.8 km/h 27.8 km/h 45 % 0.0 mm 338.0 W/m2 CLR
16:48 25.6 °C 12.8 °C 1014.8 hPa NNE 13.0 km/h 13.0 km/h 45 % 0.0 mm 877.0 W/m2 CLR
16:53 26.0 °C 12.8 °C 1014.8 hPa WNW 22.5 km/h 22.5 km/h 44 % 0.0 mm 798.0 W/m2 CLR
16:58 25.9 °C 12.3 °C 1014.8 hPa North 42.6 km/h 42.6 km/h 43 % 0.0 mm 246.0 W/m2 CLR
17:03 25.4 °C 12.6 °C 1014.4 hPa NNW 16.7 km/h 16.7 km/h 45 % 0.0 mm 798.0 W/m2 CLR
17:08 25.5 °C 12.7 °C 1014.8 hPa WNW 24.1 km/h 24.1 km/h 45 % 0.0 mm 789.0 W/m2 CLR
17:13 25.7 °C 12.8 °C 1014.8 hPa NNW 31.5 km/h 31.5 km/h 45 % 0.0 mm 772.0 W/m2 CLR
17:18 25.1 °C 12.3 °C 1014.8 hPa NNW 20.4 km/h 20.4 km/h 45 % 0.0 mm 745.0 W/m2 CLR
17:23 25.3 °C 12.8 °C 1014.8 hPa NNW 24.1 km/h 24.1 km/h 46 % 0.0 mm 694.0 W/m2 CLR
17:28 25.5 °C 12.7 °C 1014.8 hPa NNW 19.3 km/h 19.3 km/h 45 % 0.0 mm 701.0 W/m2 CLR
17:33 25.5 °C 12.3 °C 1014.8 hPa NNW 29.6 km/h 29.6 km/h 44 % 0.0 mm 642.0 W/m2 CLR
17:38 25.1 °C 12.3 °C 1014.8 hPa North 25.9 km/h 25.9 km/h 45 % 0.0 mm 642.0 W/m2 CLR
17:43 25.2 °C 12.4 °C 1014.8 hPa North 29.6 km/h 29.6 km/h 45 % 0.0 mm 608.0 W/m2 CLR
17:45 25.2 °C 12.8 °C 1014.8 hPa NNW 25.7 km/h 25.7 km/h 46 % 0.0 mm 589.0 W/m2 CLR
17:50 25.4 °C 12.7 °C 1014.8 hPa NNW 27.8 km/h 27.8 km/h 45 % 0.0 mm 596.0 W/m2 CLR
17:55 25.4 °C 12.6 °C 1014.8 hPa NW 29.6 km/h 29.6 km/h 45 % 0.0 mm 566.0 W/m2 CLR
18:00 25.2 °C 12.4 °C 1014.8 hPa NNW 27.8 km/h 27.8 km/h 45 % 0.0 mm 559.0 W/m2 CLR
18:05 25.2 °C 12.4 °C 1014.8 hPa WNW 31.5 km/h 31.5 km/h 45 % 0.0 mm 513.0 W/m2 CLR
18:10 25.1 °C 12.3 °C 1014.8 hPa NNW 43.4 km/h 43.4 km/h 45 % 0.0 mm 508.0 W/m2 CLR
18:15 24.9 °C 12.2 °C 1014.8 hPa NNW 31.5 km/h 31.5 km/h 45 % 0.0 mm 513.0 W/m2 CLR
18:20 24.8 °C 12.4 °C 1014.8 hPa North 31.5 km/h 31.5 km/h 46 % 0.0 mm 496.0 W/m2 CLR
18:25 24.9 °C 12.1 °C 1014.8 hPa NW 29.6 km/h 29.6 km/h 45 % 0.0 mm 485.0 W/m2 CLR
18:30 24.9 °C 12.2 °C 1014.8 hPa NW 27.8 km/h 27.8 km/h 45 % 0.0 mm 452.0 W/m2 CLR
18:35 24.8 °C 12.1 °C 1014.8 hPa NNW 31.5 km/h 31.5 km/h 45 % 0.0 mm 431.0 W/m2 CLR
18:40 24.7 °C 12.6 °C 1014.8 hPa NNW 18.5 km/h 18.5 km/h 47 % 0.0 mm 418.0 W/m2 CLR
18:45 24.8 °C 12.4 °C 1014.8 hPa NW 29.6 km/h 29.6 km/h 46 % 0.0 mm 396.0 W/m2 CLR
18:50 24.7 °C 12.3 °C 1014.8 hPa North 31.5 km/h 31.5 km/h 46 % 0.0 mm 374.0 W/m2 CLR
18:55 24.4 °C 12.1 °C 1015.1 hPa NNE 24.1 km/h 24.1 km/h 46 % 0.0 mm 369.0 W/m2 CLR
19:00 24.4 °C 12.3 °C 1015.1 hPa WNW 20.9 km/h 20.9 km/h 47 % 0.0 mm 380.0 W/m2 CLR
19:05 24.3 °C 12.3 °C 1015.1 hPa NW 33.3 km/h 33.3 km/h 47 % 0.0 mm 360.0 W/m2 CLR
19:10 24.3 °C 12.2 °C 1015.1 hPa North 24.1 km/h 24.1 km/h 47 % 0.0 mm 292.0 W/m2 CLR
19:15 24.2 °C 12.2 °C 1015.1 hPa NNW 22.5 km/h 22.5 km/h 47 % 0.0 mm 294.0 W/m2 CLR
19:20 24.0 °C 12.0 °C 1015.1 hPa NW 30.6 km/h 30.6 km/h 47 % 0.0 mm 294.0 W/m2 CLR
19:25 23.9 °C 11.9 °C 1015.1 hPa North 24.1 km/h 24.1 km/h 47 % 0.0 mm 302.0 W/m2 CLR
19:30 23.8 °C 12.2 °C 1015.1 hPa NNW 25.9 km/h 25.9 km/h 48 % 0.0 mm 271.0 W/m2 CLR
19:35 23.9 °C 11.9 °C 1015.5 hPa NW 22.2 km/h 22.2 km/h 47 % 0.0 mm 265.0 W/m2 CLR
19:40 23.9 °C 12.2 °C 1015.5 hPa NNW 18.5 km/h 18.5 km/h 48 % 0.0 mm 211.0 W/m2 CLR
19:45 23.7 °C 12.1 °C 1015.5 hPa NNW 20.9 km/h 20.9 km/h 48 % 0.0 mm 214.0 W/m2 CLR
19:50 23.7 °C 12.0 °C 1015.5 hPa NW 18.5 km/h 18.5 km/h 48 % 0.0 mm 199.0 W/m2 CLR
19:55 23.5 °C 11.8 °C 1015.5 hPa NNW 29.6 km/h 29.6 km/h 48 % 0.0 mm 185.0 W/m2 CLR
20:00 23.2 °C 11.9 °C 1015.5 hPa NW 27.8 km/h 27.8 km/h 49 % 0.0 mm 156.0 W/m2 CLR
20:05 23.1 °C 12.1 °C 1015.8 hPa NW 22.2 km/h 22.2 km/h 50 % 0.0 mm 141.0 W/m2 CLR
20:10 23.0 °C 12.3 °C 1015.8 hPa WNW 20.4 km/h 20.4 km/h 51 % 0.0 mm 135.0 W/m2 CLR
20:15 22.8 °C 11.9 °C 1015.8 hPa NNW 31.5 km/h 31.5 km/h 50 % 0.0 mm 105.0 W/m2 CLR
20:20 22.6 °C 11.9 °C 1015.8 hPa NNW 18.5 km/h 18.5 km/h 51 % 0.0 mm 100.0 W/m2 CLR
20:25 22.6 °C 11.9 °C 1015.8 hPa WNW 24.1 km/h 24.1 km/h 51 % 0.0 mm 95.0 W/m2 CLR
20:30 22.5 °C 11.8 °C 1015.8 hPa NNW 13.0 km/h 13.0 km/h 51 % 0.0 mm 77.0 W/m2 FEW
20:35 22.3 °C 11.7 °C 1016.1 hPa NW 25.7 km/h 25.7 km/h 51 % 0.0 mm 60.0 W/m2 SCT
20:40 22.1 °C 11.5 °C 1016.1 hPa WNW 29.6 km/h 29.6 km/h 51 % 0.0 mm 44.0 W/m2 SCT
20:45 21.9 °C 11.6 °C 1016.1 hPa WNW 14.8 km/h 14.8 km/h 52 % 0.0 mm 30.0 W/m2 BKN
20:50 21.8 °C 11.8 °C 1016.1 hPa NNW 19.3 km/h 19.3 km/h 53 % 0.0 mm 32.0 W/m2 BKN
20:55 21.7 °C 11.9 °C 1016.5 hPa WNW 18.5 km/h 18.5 km/h 54 % 0.0 mm 30.0 W/m2 BKN
21:00 21.6 °C 11.9 °C 1016.5 hPa NW 27.8 km/h 27.8 km/h 54 % 0.0 mm 25.0 W/m2 BKN
21:05 21.4 °C 11.7 °C 1016.5 hPa NW 22.2 km/h 22.2 km/h 54 % 0.0 mm 19.0 W/m2 BKN
21:10 21.2 °C 11.8 °C 1016.5 hPa WNW 22.2 km/h 22.2 km/h 55 % 0.0 mm 18.0 W/m2 BKN
21:15 21.1 °C 11.7 °C 1016.8 hPa NW 20.9 km/h 20.9 km/h 55 % 0.0 mm 14.0 W/m2 BKN
21:20 20.9 °C 11.5 °C 1016.8 hPa NW 18.5 km/h 18.5 km/h 55 % 0.0 mm 11.0 W/m2 BKN
21:25 20.8 °C 11.7 °C 1016.8 hPa WNW 13.0 km/h 13.0 km/h 56 % 0.0 mm 7.0 W/m2 BKN
21:30 20.6 °C 11.8 °C 1016.8 hPa NNW 16.1 km/h 16.1 km/h 57 % 0.0 mm 5.0 W/m2 OVC
21:35 20.5 °C 11.4 °C 1016.8 hPa NW 25.9 km/h 25.9 km/h 56 % 0.0 mm 5.0 W/m2 OVC
21:40 20.4 °C 11.3 °C 1016.8 hPa NNW 27.8 km/h 27.8 km/h 56 % 0.0 mm 0.0 W/m2 CLR
21:45 20.3 °C 11.5 °C 1017.2 hPa NW 18.5 km/h 18.5 km/h 57 % 0.0 mm 0.0 W/m2 CLR
21:50 20.1 °C 11.6 °C 1017.2 hPa NW 18.5 km/h 18.5 km/h 58 % 0.0 mm 0.0 W/m2 CLR
21:55 19.9 °C 11.4 °C 1017.2 hPa NW 11.1 km/h 11.1 km/h 58 % 0.0 mm 0.0 W/m2 CLR
22:00 19.8 °C 11.6 °C 1017.5 hPa NW 11.3 km/h 11.3 km/h 59 % 0.0 mm 0.0 W/m2 CLR
22:05 19.8 °C 11.6 °C 1017.5 hPa NW 3.7 km/h 3.7 km/h 59 % 0.0 mm 0.0 W/m2 CLR
22:10 19.7 °C 11.2 °C 1017.5 hPa NW 24.1 km/h 24.1 km/h 58 % 0.0 mm 0.0 W/m2 CLR
22:15 19.6 °C 11.1 °C 1017.5 hPa NNW 18.5 km/h 18.5 km/h 58 % 0.0 mm 0.0 W/m2 CLR
22:20 19.5 °C 11.3 °C 1017.8 hPa NNW 18.5 km/h 18.5 km/h 59 % 0.0 mm 0.0 W/m2 CLR
22:25 19.4 °C 11.2 °C 1017.8 hPa NNW 18.5 km/h 18.5 km/h 59 % 0.0 mm 0.0 W/m2 CLR
22:31 19.3 °C 11.1 °C 1018.2 hPa NW 20.4 km/h 20.4 km/h 59 % 0.0 mm 0.0 W/m2 CLR
22:36 19.2 °C 11.3 °C 1018.2 hPa NNW 18.5 km/h 18.5 km/h 60 % 0.0 mm 0.0 W/m2 CLR
22:41 19.1 °C 11.2 °C 1018.2 hPa NNW 14.5 km/h 14.5 km/h 60 % 0.0 mm 0.0 W/m2 CLR
22:46 19.0 °C 11.1 °C 1018.5 hPa NW 13.0 km/h 13.0 km/h 60 % 0.0 mm 0.0 W/m2 CLR
22:51 18.9 °C 11.2 °C 1018.5 hPa NNW 18.5 km/h 18.5 km/h 61 % 0.0 mm 0.0 W/m2 CLR
22:56 18.8 °C 11.1 °C 1018.5 hPa North 18.5 km/h 18.5 km/h 61 % 0.0 mm 0.0 W/m2 CLR
23:01 18.7 °C 11.1 °C 1018.5 hPa NW 20.9 km/h 20.9 km/h 61 % 0.0 mm 0.0 W/m2 CLR
23:06 18.7 °C 11.0 °C 1018.8 hPa NW 22.2 km/h 22.2 km/h 61 % 0.0 mm 0.0 W/m2 CLR
23:11 18.6 °C 10.9 °C 1018.8 hPa North 25.9 km/h 25.9 km/h 61 % 0.0 mm 0.0 W/m2 CLR
23:16 18.4 °C 10.8 °C 1018.8 hPa NW 22.5 km/h 22.5 km/h 61 % 0.0 mm 0.0 W/m2 CLR
23:21 18.4 °C 10.7 °C 1018.8 hPa North 22.2 km/h 22.2 km/h 61 % 0.0 mm 0.0 W/m2 CLR
23:26 18.3 °C 10.9 °C 1018.8 hPa NNW 24.1 km/h 24.1 km/h 62 % 0.0 mm 0.0 W/m2 CLR
23:31 18.2 °C 10.8 °C 1018.8 hPa NW 22.2 km/h 22.2 km/h 62 % 0.0 mm 0.0 W/m2 CLR
23:36 18.1 °C 10.7 °C 1018.8 hPa NNW 27.8 km/h 27.8 km/h 62 % 0.0 mm 0.0 W/m2 CLR
23:41 17.9 °C 10.8 °C 1019.2 hPa NW 22.2 km/h 22.2 km/h 63 % 0.0 mm 0.0 W/m2 CLR
23:46 17.8 °C 10.9 °C 1019.2 hPa NW 1.9 km/h 1.9 km/h 64 % 0.0 mm 0.0 W/m2 CLR
23:51 17.6 °C 10.9 °C 1019.2 hPa West 5.6 km/h   65 % 0.0 mm 0.0 W/m2 CLR
23:56 17.4 °C 11.0 °C 1019.2 hPa Calm   3.4 km/h 66 % 0.0 mm 0.0 W/m2 CLR
Lo Temps de Massalio
Compliments of Weather Underground - 1.25 mb